Tracking 18624 objects as of 26-April-2017
HD Live streaming from Space Station
objects crossing your sky now

SCOUT X-4 R/B

Track SCOUT X-4 R/B now!
10-day predictions


NORAD ID: 1739
Int'l Code: 1965-093B
Perigee: 664.2 km
Apogee: 793.0 km
Inclination: 59.7 °
Period: 99.2 minutes
Semi major axis: 7099 km
RCS: 0.5409 m2 (medium)
Launch date: November 19, 1965
Source: United States (US)
Launch site: WALLOPS ISLAND (WLPIS)

Note: This is a ROCKET BODY
Your satellite tracking list
Your tracking list is empty





NASA's NSSDC Master Catalog

Two Line Element Set (TLE):
1  1739U 65093B   17114.71351483 +.00000008 +00000-0 +40739-4 0  9994
2  1739 059.7046 252.8994 0090746 031.9015 328.7478 14.51277864685088
Source of the keplerian elements: AFSPC